GW1546 Weather Reports


Display with metric or nautical units.
time (UTC)temp
F
wind
direction
speed
MPH
gust
MPH
rain 1hr
in
rain 24hr
in
rain mn
in
humidity
%
barometer
mb
20260902100647 69 151 1.0 2.0 0.00 0.00 0.00 99 992.5
20260902100047 69 196 2.0 3.0 0.00 0.00 0.00 99 992.2
20260902095431 69 185 2.0 2.0 0.00 0.00 0.00 99 992.2
20260902094845 69 194 1.0 3.0 0.00 0.00 0.00 99 992.2
20260902094218 69 175 1.0 2.0 0.00 0.00 0.00 99 992.2
20260902093642 69 200 2.0 2.0 0.00 0.00 0.00 99 992.2
20260902093025 69 164 2.0 2.0 0.00 0.00 0.00 99 992.2
20260902092418 69 201 1.0 2.0 0.00 0.00 0.00 99 991.8
20260902091820 69 184 2.0 2.0 0.00 0.00 0.00 99 991.8
20260902091216 69 171 2.0 2.0 0.00 0.00 0.00 99 991.8
20260902090613 69 200 2.0 2.0 0.00 0.00 0.00 99 991.8
20260902090043 70 186 2.0 2.0 0.00 0.00 0.00 99 991.8
20260902085434 69 185 2.0 3.0 0.00 0.00 0.00 99 991.8
20260902084839 70 190 2.0 2.0 0.00 0.00 0.00 99 991.8
20260902084212 70 182 1.0 1.0 0.00 0.00 0.00 99 991.8
20260902083624 70 62 0.0 0.0 0.00 0.00 0.00 99 991.8
20260902083037 70 210 0.0 2.0 0.00 0.00 0.00 99 991.8
20260902082429 70 186 1.0 1.0 0.00 0.00 0.00 99 991.5
20260902081822 69 192 1.0 2.0 0.00 0.00 0.00 99 991.5
20260902080610 70 177 1.0 3.0 0.00 0.00 0.00 99 991.8
20260902080014 70 186 2.0 2.0 0.00 0.00 0.00 99 991.8
20260902074229 70 191 2.0 2.0 0.00 0.00 0.00 99 991.8
20260902073616 70 197 1.0 2.0 0.00 0.00 0.00 99 991.8
20260902073027 70 173 1.0 2.0 0.00 0.00 0.00 99 992.2
20260902072443 70 176 2.0 2.0 0.00 0.00 0.00 99 991.8
20260902071828 70 193 2.0 2.0 0.00 0.00 0.00 99 991.8
20260902071230 70 190 1.0 2.0 0.00 0.00 0.00 99 991.8
20260902070644 70 184 1.0 2.0 0.00 0.00 0.00 99 991.8
20260902070017 71 205 2.0 2.0 0.00 0.00 0.00 99 991.8
20260902065448 71 143 0.0 0.0 0.00 0.00 0.00 99 991.5
20260902064838 70 183 1.0 2.0 0.00 0.00 0.00 99 991.8
20260902064248 70 181 1.0 2.0 0.00 0.00 0.00 99 991.8
20260902063632 70 186 1.0 2.0 0.00 0.00 0.00 99 991.8
20260902063027 70 200 2.0 2.0 0.00 0.00 0.00 99 991.8
20260902062406 71 213 1.0 1.0 0.00 0.00 0.00 99 991.8
20260902061837 71 187 1.0 2.0 0.00 0.00 0.00 99 991.8
20260902061209 71 193 1.0 2.0 0.00 0.00 0.00 99 991.8
20260902060040 71 181 1.0 2.0 0.00 0.00 0.00 99 991.5
20260902055429 71 205 1.0 2.0 0.00 0.00 0.00 99 991.8
20260902054236 71 176 0.0 3.0 0.00 0.00 0.00 99 991.1
20260902053613 71 167 2.0 3.0 0.00 0.00 0.00 99 991.5
20260902053036 71 186 1.0 2.0 0.00 0.00 0.00 99 991.5
20260902051834 71 170 2.0 2.0 0.00 0.00 0.00 99 991.5
20260902051227 72 191 1.0 2.0 0.00 0.00 0.00 99 991.8
20260902050618 72 149 1.0 1.0 0.00 0.00 0.00 99 991.5
20260902050045 72 191 2.0 2.0 0.00 0.00 0.00 99 991.1
20260902045448 72 174 1.0 2.0 0.00 0.00 0.00 99 991.1
20260902044823 72 177 2.0 3.0 0.00 0.00 0.00 99 991.1
20260902044213 72 202 2.0 2.0 0.00 0.00 0.00 99 991.1
20260902043043 72 90 0.0 2.0 0.00 0.00 0.00 99 991.1
20260902042435 72 171 2.0 2.0 0.00 0.00 0.00 99 991.1
20260902041818 72 204 1.0 2.0 0.00 0.00 0.00 99 991.1
20260902041251 72 190 1.0 1.0 0.00 0.00 0.00 99 991.1
20260902040647 72 202 1.0 2.0 0.00 0.00 0.00 99 990.8
20260902040038 72 172 2.0 2.0 0.00 0.00 0.00 99 991.1
20260902035430 72 173 1.0 3.0 0.00 0.00 0.00 99 991.1
20260902034242 72 192 2.0 2.0 0.00 0.00 0.00 99 991.1
20260902033647 73 171 1.0 2.0 0.00 0.00 0.00 99 991.1
20260902033012 72 175 2.0 2.0 0.00 0.00 0.00 99 991.1
20260902032448 73 191 2.0 2.0 0.00 0.00 0.00 99 991.1
20260902031839 73 182 2.0 3.0 0.00 0.00 0.00 99 991.1
20260902031230 73 170 1.0 2.0 0.00 0.00 0.00 99 991.1
20260902030631 73 167 1.0 1.0 0.00 0.00 0.00 99 991.1
20260902030014 73 168 2.0 3.0 0.00 0.00 0.00 99 991.1
20260902024214 73 155 2.0 3.0 0.00 0.00 0.00 99 991.1
20260902023023 73 192 2.0 2.0 0.00 0.00 0.00 99 991.1
20260902021816 73 170 1.0 2.0 0.00 0.00 0.00 99 991.1
20260902021246 74 91 0.0 0.0 0.00 0.00 0.00 99 991.1
20260902020623 74 62 0.0 0.0 0.00 0.00 0.00 99 990.8
20260902020023 74 185 0.0 0.0 0.00 0.00 0.00 99 991.1
20260902015432 74 180 0.0 1.0 0.00 0.00 0.00 99 991.1
20260902014811 74 179 0.0 0.0 0.00 0.00 0.00 99 990.8
20260902014231 74 177 0.0 0.0 0.00 0.00 0.00 99 990.8
20260902013647 74 177 0.0 0.0 0.00 0.00 0.00 99 990.8
20260902013044 74 175 1.0 2.0 0.00 0.00 0.00 99 990.8
20260902012426 74 201 0.0 0.0 0.00 0.00 0.00 99 990.8
20260902011824 75 201 0.0 1.0 0.00 0.00 0.00 99 990.8
20260902011249 75 201 0.0 0.0 0.00 0.00 0.00 99 990.5
20260902010627 75 175 0.0 1.0 0.00 0.00 0.00 99 990.5
20260902004807 76 177 0.0 0.0 0.00 0.00 0.00 99 990.5
20260902004231 76 177 0.0 0.0 0.00 0.00 0.00 99 990.5
20260902003648 76 177 0.0 1.0 0.00 0.00 0.00 99 990.5
20260902003026 76 178 0.0 0.0 0.00 0.00 0.00 99 990.5
20260902001832 76 178 1.0 1.0 0.00 0.00 0.00 99 990.1
20260902001250 77 192 0.0 0.0 0.00 0.00 0.00 98 990.1
20260902000646 77 192 0.0 0.0 0.00 0.00 0.00 98 989.8
20260902000008 77 223 0.0 1.0 0.00 0.00 0.00 98 989.8
20260901235425 77 196 0.0 1.0 0.00 0.00 0.00 97 989.8
20260901234817 78 261 0.0 0.0 0.00 0.00 0.00 96 989.8
20260901234248 78 280 0.0 1.0 0.00 0.00 0.00 96 989.8
20260901233618 78 178 0.0 1.0 0.00 0.00 0.00 95 989.5
20260901233023 78 239 0.0 2.0 0.00 0.00 0.00 95 989.5
20260901232439 78 218 0.0 1.0 0.00 0.00 0.00 95 989.8
20260901231820 79 189 0.0 1.0 0.00 0.00 0.00 94 989.8
20260901231211 79 199 1.0 2.0 0.00 0.00 0.00 94 989.8
20260901230012 80 181 0.0 1.0 0.00 0.00 0.00 92 989.8
20260901224843 81 233 0.0 0.0 0.00 0.00 0.00 89 989.8
20260901224227 82 218 0.0 0.0 0.00 0.00 0.00 88 990.1
20260901223610 82 234 0.0 1.0 0.00 0.00 0.00 88 989.8
20260901223026 82 245 1.0 1.0 0.00 0.00 0.00 85 989.8
20260901222408 82 234 1.0 2.0 0.00 0.00 0.00 82 989.8
20260901221818 84 225 1.0 2.0 0.00 0.00 0.00 81 989.8
20260901221208 86 225 1.0 2.0 0.00 0.00 0.00 77 990.1
20260901220050 88 263 0.0 2.0 0.00 0.00 0.00 74 990.1
20260901215424 88 292 1.0 1.0 0.00 0.00 0.00 76 990.1
20260901214808 89 238 1.0 1.0 0.00 0.00 0.00 72 990.1
20260901214217 89 251 0.0 1.0 0.00 0.00 0.00 73 990.1
20260901213621 89 250 1.0 1.0 0.00 0.00 0.00 71 990.1
20260901213041 90 250 1.0 1.0 0.00 0.00 0.00 72 990.1
20260901212422 89 251 1.0 1.0 0.00 0.00 0.00 71 990.1
20260901211846 89 253 0.0 1.0 0.00 0.00 0.00 70 990.1
20260901211230 88 226 1.0 2.0 0.00 0.00 0.00 71 990.1
20260901210641 87 229 0.0 3.0 0.00 0.00 0.00 74 990.1
20260901210006 89 243 1.0 2.0 0.00 0.00 0.00 72 990.1
20260901205447 89 238 1.0 2.0 0.00 0.00 0.00 74 990.1
20260901204809 90 230 1.0 1.0 0.00 0.00 0.00 72 990.1
20260901204240 90 232 1.0 2.0 0.00 0.00 0.00 71 990.5
20260901203613 90 250 1.0 1.0 0.00 0.00 0.00 71 990.5
20260901203012 88 283 1.0 1.0 0.00 0.00 0.00 71 990.8
20260901202421 87 312 1.0 2.0 0.00 0.00 0.00 75 990.5
20260901201234 90 321 2.0 2.0 0.00 0.00 0.00 73 990.8
20260901200609 90 256 1.0 1.0 0.00 0.00 0.00 71 990.8
20260901200012 91 302 2.0 2.0 0.00 0.00 0.00 70 990.8
20260901195425 91 265 1.0 1.0 0.00 0.00 0.00 67 990.8
20260901194829 92 293 0.0 1.0 0.00 0.00 0.00 71 990.8
20260901194241 93 283 1.0 2.0 0.00 0.00 0.00 62 990.8
20260901193608 94 240 1.0 2.0 0.00 0.00 0.00 59 990.5
20260901193026 94 276 1.0 1.0 0.00 0.00 0.00 62 990.8
20260901192409 94 286 2.0 2.0 0.00 0.00 0.00 62 990.8
20260901191832 92 277 0.0 1.0 0.00 0.00 0.00 63 990.8
20260901191242 92 272 3.0 4.0 0.00 0.00 0.00 62 990.5
20260901190629 93 239 2.0 3.0 0.00 0.00 0.00 61 990.8
20260901190017 92 242 1.0 2.0 0.00 0.00 0.00 61 990.8
20260901185410 92 147 1.0 3.0 0.00 0.00 0.00 63 991.1
20260901184216 89 225 1.0 2.0 0.00 0.00 0.00 74 991.5
20260901183627 86 8 0.0 1.0 0.00 0.00 0.00 81 991.5
20260901181814 90 323 0.0 2.0 0.00 0.00 0.00 67 991.8
20260901181235 89 186 1.0 2.0 0.00 0.00 0.00 71 991.5
20260901180639 89 220 3.0 3.0 0.00 0.00 0.00 75 991.5
20260901180039 90 208 2.0 3.0 0.00 0.00 0.00 65 991.8
20260901175425 90 218 2.0 3.0 0.00 0.00 0.00 69 991.8
20260901174239 90 253 1.0 3.0 0.00 0.00 0.00 68 991.8
20260901171834 90 306 4.0 7.0 0.00 0.00 0.00 67 992.2
20260901171219 91 255 1.0 2.0 0.00 0.00 0.00 66 992.2
20260901170641 91 8 0.0 2.0 0.00 0.00 0.00 69 991.8
20260901170006 89 333 0.0 3.0 0.00 0.00 0.00 68 991.8
20260901165427 89 240 0.0 3.0 0.00 0.00 0.00 71 991.8
20260901164845 88 243 1.0 7.0 0.00 0.00 0.00 70 992.2
20260901164209 88 1 4.0 7.0 0.00 0.00 0.00 71 992.2
20260901163630 88 88 3.0 3.0 0.00 0.00 0.00 70 991.8
20260901162428 88 52 0.0 1.0 0.00 0.00 0.00 77 992.2
20260901161234 90 216 1.0 3.0 0.00 0.00 0.00 69 992.2
20260901160648 91 176 5.0 6.0 0.00 0.00 0.00 67 992.2
20260901160032 88 303 1.0 1.0 0.00 0.00 0.00 73 991.8
20260901155427 88 100 2.0 3.0 0.00 0.00 0.00 73 991.8
20260901154836 90 60 5.0 7.0 0.00 0.00 0.00 72 991.8
20260901154234 89 4 1.0 1.0 0.00 0.00 0.00 73 992.2
20260901153649 90 38 0.0 2.0 0.00 0.00 0.00 77 992.2
20260901153008 89 71 0.0 1.0 0.00 0.00 0.00 78 992.2
20260901151246 86 58 0.0 2.0 0.00 0.00 0.00 80 992.5
20260901150612 85 38 0.0 1.0 0.00 0.00 0.00 81 992.2
20260901150037 85 29 0.0 1.0 0.00 0.00 0.00 80 992.5
20260901145446 85 91 1.0 1.0 0.00 0.00 0.00 81 992.5
20260901144815 82 38 1.0 1.0 0.00 0.00 0.00 85 992.5
20260901144222 82 19 2.0 4.0 0.00 0.00 0.00 85 992.5
20260901143625 82 46 0.0 1.0 0.00 0.00 0.00 84 992.8
20260901143011 81 72 1.0 1.0 0.00 0.00 0.00 87 992.8
20260901142416 80 66 0.0 1.0 0.00 0.00 0.00 88 992.8
20260901141828 78 11 1.0 1.0 0.00 0.00 0.00 90 992.5
20260901141246 77 66 1.0 2.0 0.00 0.00 0.00 92 992.8
20260901140646 76 44 2.0 4.0 0.00 0.00 0.00 93 992.8
20260901140040 76 24 1.0 2.0 0.00 0.00 0.00 94 992.5
20260901135427 75 21 1.0 2.0 0.00 0.00 0.00 94 992.8
20260901134825 75 78 2.0 3.0 0.00 0.00 0.00 94 992.8
20260901134207 75 51 1.0 3.0 0.00 0.00 0.00 95 992.8
20260901133629 74 75 0.0 1.0 0.00 0.00 0.00 96 992.8
20260901133015 74 39 0.0 2.0 0.00 0.00 0.00 96 993.2
20260901132425 73 92 2.0 3.0 0.00 0.00 0.00 96 993.2
20260901131809 73 44 1.0 4.0 0.00 0.00 0.00 97 993.2
20260901131233 73 46 2.0 3.0 0.00 0.00 0.00 97 993.2
20260901130010 72 19 2.0 4.0 0.00 0.00 0.00 99 993.2
20260901124820 72 66 2.0 3.0 0.00 0.00 0.00 99 993.2
20260901124234 72 33 1.0 1.0 0.00 0.00 0.00 99 993.5
20260901123643 72 54 3.0 3.0 0.00 0.00 0.00 99 993.2
20260901123037 72 86 0.0 1.0 0.00 0.00 0.00 99 993.2
20260901121830 71 99 1.0 1.0 0.00 0.00 0.00 99 993.2
20260901121236 71 77 1.0 1.0 0.00 0.00 0.00 99 993.2
20260901120608 71 214 1.0 1.0 0.00 0.00 0.00 99 993.2
20260901120048 71 258 0.0 3.0 0.00 0.00 0.00 99 993.2
20260901115416 71 356 0.0 1.0 0.00 0.00 0.00 99 993.2
20260901114849 71 88 1.0 1.0 0.00 0.00 0.00 99 992.8
20260901113609 70 110 0.0 1.0 0.00 0.00 0.00 99 992.8
20260901113018 70 217 1.0 1.0 0.00 0.00 0.00 99 992.8
20260901112428 70 200 1.0 2.0 0.00 0.00 0.00 99 992.8
20260901111830 70 180 2.0 2.0 0.00 0.00 0.00 99 992.5
20260901111208 70 190 1.0 1.0 0.00 0.00 0.00 99 992.5
20260901110643 70 172 0.0 1.0 0.00 0.00 0.00 99 992.2
20260901110028 70 188 0.0 1.0 0.00 0.00 0.00 99 992.2
20260901105412 70 147 2.0 2.0 0.00 0.00 0.00 99 992.5
20260901104826 70 207 2.0 2.0 0.00 0.00 0.00 99 992.2
20260901104245 70 180 1.0 1.0 0.00 0.00 0.00 99 992.2
20260901103631 70 191 1.0 1.0 0.00 0.00 0.00 99 992.2
20260901102412 69 168 1.0 2.0 0.00 0.00 0.00 99 992.2
20260901101826 70 193 1.0 2.0 0.00 0.00 0.00 99 991.8
20260901101218 69 186 2.0 2.0 0.00 0.00 0.00 99 992.2